www.pogodaiklimat.ru

Погода и климат >> Архив погоды >> Япония >> Отару


ПОГОДА в Отару

  • Прогноз погоды в Отару
  • Монитор погоды в Отару

АРХИВ ПОГОДЫ в Отару

Время (UTC), дата Ветер
(напр.,м/с)
 
Видим.   Явления Облачность Т
(С)
Тd
(С)
f
(%)
Тe
(С)
Тes
(С)
Комфортность P
(гПа)
Po
(гПа)
Тmin
(С)
Tmax
(С)
R
(мм)
R24
(мм)
S
(см)
22 8.06 С 2 20 км н/о +16.6 +12.0 74 +17 +17 1010.2 1007.1
23 8.06 В 3 20 км н/о +16.6 +12.0 74 +16 +16 1010.5 1007.4
00 9.06 СЗ 3 20 км н/о +16.9 +12.5 75 +17 +17 1010.8 1007.7 +12.1
01 9.06 С 3 20 км н/о +16.9 +11.8 72 +17 +17 1011.1 1008.0
02 9.06 СВ 4 20 км н/о +15.6 +11.8 78 +15 +15 1011.5 1008.4
03 9.06 СВ 4 20 км н/о +16.0 +12.0 77 +15 +15 1011.3 1008.2
04 9.06 В 3 20 км н/о +17.1 +12.8 76 +17 +17 1011.1 1008.0
05 9.06 СВ 3 20 км н/о +16.9 +12.5 75 +17 +17 1010.9 1007.8
06 9.06 СЗ 3 20 км н/о +17.5 +12.2 71 +17 +17 1011.0 1007.9
07 9.06 С 4 20 км н/о +17.0 +12.1 73 +17 +17 1010.9 1007.8
08 9.06 СЗ 2 20 км н/о +15.8 +11.8 77 +16 +16 1010.7 1007.6
09 9.06 С 2 20 км н/о +14.8 +11.8 82 +14 +14 1010.9 1007.8
10 9.06 СЗ 2 20 км н/о +14.4 +11.9 85 +14 +14 1011.2 1008.1
11 9.06 Ю 1 20 км н/о +14.1 +11.8 86 +14 +14 1011.6 1008.5
12 9.06 С 1 20 км н/о +13.9 +11.8 87 +14 +14 1012.0 1008.9 +18.1
13 9.06 В 2 20 км н/о +14.1 +12.0 87 +14 +14 1011.7 1008.6
14 9.06 ЮВ 1 20 км н/о +14.0 +12.1 88 +14 +14 1011.6 1008.5
15 9.06 ЮЗ 2 20 км н/о +13.4 +11.8 90 +13 +13 1011.5 1008.3
16 9.06 ЮЗ 3 20 км н/о +12.6 +11.5 93 +11 +11 1011.6 1008.4
17 9.06 ЮЗ 2 20 км н/о +13.4 +11.8 90 +13 +13 1011.3 1008.1
18 9.06 ЮЗ 2 20 км н/о +12.9 +11.5 91 +12 +12 1011.3 1008.1
19 9.06 ЮЗ 1 19 км н/о +13.3 +11.9 91 +13 +13 1011.5 1008.3
20 9.06 ЮЗ 2 20 км н/о +13.4 +11.8 90 +13 +13 1011.8 1008.6
21 9.06 ЮЗ 1 18 км н/о +14.6 +12.3 86 +15 +15 1011.8 1008.7
22 9.06 В 2 20 км н/о +16.1 +12.9 81 +16 +16 1011.8 1008.7
23 9.06 В 3 20 км н/о +16.4 +13.0 80 +16 +16 1011.7 1008.6
00 10.06 СВ 3 20 км н/о +16.6 +12.6 77 +17 +17 1011.6 1008.5 +12.5
01 10.06 СВ 3 20 км н/о +17.7 +12.6 72 +18 +18 1011.2 1008.1
02 10.06 СВ 3 20 км н/о +18.4 +12.2 67 +19 +19 1010.7 1007.6
03 10.06 С 3 20 км н/о +19.8 +13.0 65 +22 +22 комфорт 1010.4 1007.3
04 10.06 С 3 20 км н/о +19.6 +12.9 65 +21 +21 комфорт 1010.2 1007.1
05 10.06 С 2 20 км н/о +20.9 +12.9 60 +24 +24 комфорт 1010.1 1007.0
06 10.06 С 3 20 км н/о +20.4 +13.4 64 +23 +23 комфорт 1010.3 1007.2
07 10.06 С 3 20 км н/о +20.2 +13.7 66 +23 +23 комфорт 1010.1 1007.0
08 10.06 С 3 20 км н/о +18.1 +14.0 77 +19 +19 1010.1 1007.0
09 10.06 СЗ 2 20 км н/о +17.5 +13.4 77 +18 +18 1010.3 1007.2
10 10.06 З 2 20 км н/о +16.3 +13.4 83 +17 +17 1010.3 1007.2
11 10.06 З 2 20 км н/о +16.0 +13.5 85 +16 +16 1010.6 1007.5
12 10.06 ЮЗ 1 19 км н/о +15.0 +13.4 90 +15 +15 1011.0 1007.9 +21.9
13 10.06 ЮЗ 2 18 км н/о +14.3 +13.0 92 +14 +14 1011.3 1008.2
14 10.06 З 2 18 км н/о +13.2 +11.9 92 +12 +12 1011.7 1008.5
15 10.06 ЮЗ 2 19 км н/о +12.6 +11.5 93 +12 +12 1011.7 1008.5
16 10.06 ЮЗ 2 18 км н/о +11.9 +11.0 94 +11 +11 1011.7 1008.5
17 10.06 ЮЗ 2 20 км н/о +12.3 +10.7 90 +11 +11 1011.9 1008.7
18 10.06 ЮЗ 2 20 км н/о +12.3 +10.9 91 +12 +12 1011.8 1008.6
19 10.06 З 2 17 км н/о +11.0 +10.1 94 +10 +10 1011.7 1008.5
20 10.06 З 2 19 км н/о +11.9 +10.5 91 +11 +11 1012.1 1008.9
21 10.06 З 2 20 км н/о +14.3 +11.1 81 +14 +14 1012.1 1009.0
22 10.06 СВ 2 20 км н/о +15.3 +11.7 79 +15 +15 1012.6 1009.5
23 10.06 В 2 20 км н/о +16.2 +11.4 73 +16 +16 1012.7 1009.6
00 11.06 В 2 20 км н/о +18.2 +12.2 68 +19 +19 1012.2 1009.1 +10.9
01 11.06 В 3 20 км н/о +17.9 +11.0 64 +18 +18 1011.5 1008.4
02 11.06 СВ 4 20 км н/о +21.0 +13.9 64 +24 +24 комфорт 1011.2 1008.1
03 11.06 В 5 20 км н/о +20.6 +12.3 59 +23 +23 комфорт 1010.6 1007.5
04 11.06 В 4 20 км н/о +22.0 +12.0 53 +24 +24 комфорт 1010.1 1007.1
05 11.06 В 4 20 км н/о +21.9 +11.6 52 +24 +24 комфорт 1010.1 1007.1
06 11.06 В 4 20 км н/о +21.9 +11.6 52 +24 +24 комфорт 1010.0 1007.0
07 11.06 З 3 20 км н/о +20.0 +13.5 66 +22 +22 комфорт 1010.3 1007.2
08 11.06 З 3 20 км н/о +18.7 +13.1 70 +20 +20 1010.6 1007.5
09 11.06 З 2 20 км н/о +17.8 +12.7 72 +18 +18 1011.2 1008.1
10 11.06 З 3 20 км н/о +16.9 +11.8 72 +17 +17 1011.7 1008.6
11 11.06 ЮЗ 3 20 км н/о +16.2 +11.8 75 +16 +16 1011.9 1008.8
12 11.06 ЮЗ 3 20 км н/о +15.2 +11.6 79 +15 +15 1012.1 1009.0 +23.1
13 11.06 Ю 1 20 км н/о +14.6 +11.4 81 +15 +15 1011.9 1008.8
14 11.06 ЮЗ 1 20 км н/о +13.5 +11.2 86 +14 +14 1012.2 1009.0
15 11.06 ЮЗ 2 20 км н/о +13.0 +11.2 89 +13 +13 1012.0 1008.8
16 11.06 ЮЗ 2 20 км н/о +12.3 +11.0 92 +12 +12 1011.8 1008.6
17 11.06 ЮЗ 1 20 км н/о +11.7 +10.6 93 +11 +11 1011.7 1008.5
18 11.06 З 1 20 км н/о +11.6 +10.7 94 +12 +12 1011.5 1008.3
19 11.06 ЮЗ 2 20 км н/о +11.8 +10.7 93 +11 +11 1011.8 1008.6
20 11.06 ЮЗ 1 20 км н/о +12.6 +11.0 90 +13 +13 1011.7 1008.5
21 11.06 З 1 20 км н/о +14.4 +11.4 82 +15 +15 1011.3 1008.2
22 11.06 СВ 2 20 км н/о +15.0 +11.8 81 +15 +15 1011.4 1008.3
23 11.06 В 2 20 км н/о +15.7 +12.6 82 +16 +16 1011.7 1008.6
00 12.06 В 2 20 км н/о +17.8 +12.5 71 +18 +18 1011.1 1008.0 +10.9
01 12.06 С 3 20 км н/о +17.0 +12.1 73 +17 +17 1011.0 1007.9
02 12.06 СЗ 3 20 км н/о +17.3 +12.8 75 +17 +17 1011.1 1008.0
03 12.06 СЗ 3 20 км слаб. дождь н/о +16.3 +12.5 78 +16 +16 1011.4 1008.3
04 12.06 СЗ 2 20 км в посл. час дождь н/о +16.1 +12.5 79 +16 +16 1011.1 1008.0
05 12.06 СЗ 2 20 км н/о +16.2 +12.2 77 +17 +17 1010.7 1007.6
06 12.06 СЗ 3 20 км {дождь} н/о +16.5 +12.3 76 +16 +16 1010.2 1007.1 0.0
07 12.06 СЗ 2 20 км н/о +16.8 +12.4 75 +17 +17 1010.2 1007.1
08 12.06 СЗ 2 20 км н/о +17.2 +12.1 72 +18 +18 1009.6 1006.5
09 12.06 СЗ 2 20 км н/о +16.0 +12.6 80 +16 +16 1009.8 1006.7
10 12.06 СЗ 2 20 км н/о +15.3 +12.8 85 +15 +15 1010.1 1007.0
11 12.06 СЗ 2 19 км н/о +15.1 +12.8 86 +15 +15 1010.4 1007.3
12 12.06 СЗ 1 15 км слаб. дождь н/о +14.6 +13.0 90 +15 +15 1010.5 1007.4 +18.7 0.0
13 12.06 З 1 15 км слаб. дождь н/о +14.5 +13.2 92 +15 +15 1010.2 1007.1
14 12.06 СЗ 1 20 км слаб. дождь н/о +14.4 +13.0 91 +15 +15 1010.1 1007.0
15 12.06 С 3 3500 м слаб. дождь н/о +13.2 +12.6 96 +12 +12 1010.5 1007.3
16 12.06 З 2 8000 м слаб. дождь н/о +13.0 +12.7 98 +12 +12 1010.5 1007.3
17 12.06 ЮЗ 2 15 км слаб. дождь н/о +13.1 +12.8 98 +13 +13 1010.2 1007.0
18 12.06 Ю 1 20 км в посл. час дождь н/о +13.1 +12.5 96 +14 +14 1009.8 1006.7 2
19 12.06 З 1 20 км н/о +13.1 +12.8 98 +14 +14 1009.7 1006.6
20 12.06 ЮЗ 2 20 км н/о +13.4 +12.9 97 +13 +13 1010.2 1007.1
21 12.06 З 1 20 км н/о +14.1 +12.8 92 +14 +14 1010.4 1007.3
22 12.06 СЗ 1 20 км н/о +14.7 +12.7 88 +15 +15 1010.8 1007.7
23 12.06 С 2 20 км н/о +15.0 +13.2 89 +15 +15 1011.3 1008.2
00 13.06 С 2 20 км слаб. дождь н/о +14.9 +13.1 89 +15 +15 1011.6 1008.5 +13.0 2
01 13.06 СЗ 2 10 км слаб. дождь н/о +14.5 +13.6 94 +14 +14 1011.8 1008.7
02 13.06 С 2 20 км в посл. час дождь н/о +16.4 +13.5 83 +16 +16 1011.0 1007.9
03 13.06 СВ 4 20 км {дождь} н/о +15.7 +13.0 84 +15 +15 1011.0 1007.9
04 13.06 СВ 3 20 км н/о +16.8 +12.8 77 +17 +17 1011.1 1008.0
05 13.06 С 2 20 км н/о +15.8 +12.7 82 +16 +16 1011.6 1008.5
06 13.06 В 3 20 км {дождь} н/о +15.5 +12.8 84 +15 +15 1011.4 1008.3 0.0
07 13.06 В 4 20 км в посл. час дождь н/о +15.5 +13.0 85 +14 +14 1011.4 1008.3
08 13.06 В 3 20 км н/о +15.2 +12.7 85 +14 +14 1011.4 1008.3
09 13.06 В 2 20 км {дождь} н/о +15.0 +12.7 86 +15 +15 1012.1 1009.0
10 13.06 В 2 20 км н/о +15.0 +12.7 86 +15 +15 1012.4 1009.3
11 13.06 В 2 20 км н/о +15.2 +12.7 85 +15 +15 1012.7 1009.6
12 13.06 В 1 20 км {дождь} н/о +14.9 +12.8 87 +15 +15 1012.9 1009.8 +17.7 0.0
13 13.06 В 1 20 км н/о +14.6 +12.6 88 +16 +16 1012.7 1009.6
14 13.06 ЮЗ 2 20 км н/о +14.2 +12.6 90 +14 +14 1012.5 1009.4
15 13.06 ЮЗ 2 20 км н/о +14.2 +12.6 90 +14 +14 1012.2 1009.1
16 13.06 ЮЗ 1 20 км н/о +13.6 +12.5 93 +14 +14 1011.9 1008.7
17 13.06 ЮЗ 2 20 км н/о +12.2 +11.7 97 +11 +11 1012.1 1008.9
18 13.06 ЮЗ 1 17 км н/о +11.4 +11.3 99 +12 +12 1011.7 1008.5
19 13.06 Ю 2 20 км н/о +11.9 +11.3 96 +11 +11 1011.7 1008.5
20 13.06 ЮЗ 2 20 км н/о +12.6 +11.5 93 +12 +12 1011.4 1008.2
21 13.06 ЮЗ 1 20 км н/о +15.4 +12.4 82 +16 +16 1010.8 1007.7
22 13.06 СВ 2 20 км н/о +16.5 +12.3 76 +17 +17 1010.6 1007.5
23 13.06 В 2 20 км н/о +17.1 +12.2 73 +17 +17 1011.1 1008.0
00 14.06 В 3 20 км н/о +19.4 +11.7 61 +21 +21 комфорт 1010.4 1007.3 +11.0
01 14.06 С 2 20 км н/о +19.8 +9.4 51 +22 +22 комфорт 1010.7 1007.6
02 14.06 СВ 2 20 км н/о +19.7 +11.0 57 +22 +22 комфорт 1010.4 1007.3
03 14.06 СВ 2 20 км н/о +21.5 +13.9 62 +24 +24 комфорт 1009.4 1006.4
04 14.06 В 4 20 км н/о +22.8 +14.1 58 +26 +26 жарко 1009.1 1006.1
05 14.06 В 4 15 км н/о +23.9 +14.0 54 +26 +26 жарко 1008.7 1005.7
06 14.06 В 4 20 км н/о +22.4 +14.3 60 +26 +26 жарко 1008.6 1005.6
07 14.06 В 3 20 км н/о +22.3 +14.7 62 +26 +26 жарко 1008.5 1005.5
08 14.06 СВ 2 20 км н/о +21.3 +14.0 63 +24 +24 комфорт 1008.9 1005.9
09 14.06 С 2 20 км н/о +21.1 +13.8 63 +24 +24 комфорт 1009.2 1006.1
10 14.06 В 1 20 км н/о +19.7 +14.3 71 +23 +23 комфорт 1009.5 1006.4
11 14.06 ЮВ 1 20 км н/о +18.5 +13.6 73 +21 +21 комфорт 1009.7 1006.6
12 14.06 ЮЗ 1 20 км н/о +17.1 +11.2 68 +18 +18 1010.1 1007.0 +24.1
13 14.06 ЮЗ 2 20 км н/о +15.9 +8.6 62 +16 +16 1009.8 1006.7
14 14.06 ЮЗ 1 20 км н/о +14.9 +8.8 67 +15 +15 1009.6 1006.5
15 14.06 З 2 20 км н/о +14.2 +8.2 67 +14 +14 1009.5 1006.4
16 14.06 Ю 1 20 км н/о +14.5 +9.3 71 +16 +16 1009.3 1006.2
17 14.06 ЮЗ 2 20 км н/о +14.9 +9.1 68 +15 +15 1009.0 1005.9
18 14.06 Ю 1 20 км н/о +15.1 +9.5 69 +16 +16 1008.5 1005.4
19 14.06 З 1 20 км н/о +14.9 +10.3 74 +15 +15 1008.4 1005.3
20 14.06 Ю 1 20 км н/о +15.3 +10.5 73 +16 +16 1008.0 1004.9
21 14.06 З 2 20 км н/о +16.5 +11.4 72 +17 +17 1007.9 1004.8
22 14.06 З 1 20 км н/о +19.6 +12.1 62 +22 +22 комфорт 1007.6 1004.5
23 14.06 СВ 2 20 км н/о +19.8 +10.5 55 +22 +22 комфорт 1007.8 1004.7
00 15.06 ЮЗ 2 20 км н/о +22.7 +14.3 59 +26 +26 жарко 1007.0 1004.0 +14.0
01 15.06 С 2 20 км н/о +22.3 +13.9 59 +25 +25 комфорт 1007.2 1004.2
02 15.06 В 6 20 км н/о +21.9 +14.3 62 +25 +25 комфорт 1006.9 1003.9
03 15.06 В 8 20 км н/о +22.3 +14.4 61 +26 +26 жарко 1006.6 1003.6
04 15.06 ЮВ 4 20 км н/о +25.1 +12.3 45 +27 +27 жарко 1006.2 1003.2
05 15.06 В 5 20 км н/о +25.5 +13.0 46 +27 +27 жарко 1005.4 1002.4
06 15.06 ЮВ 4 20 км н/о +25.2 +12.4 45 +27 +27 жарко 1005.7 1002.7
07 15.06 ЮВ 3 20 км н/о +22.4 +12.7 54 +25 +25 комфорт 1006.6 1003.6
08 15.06 В 5 20 км в посл. час дождь н/о +19.5 +14.3 72 +21 +21 комфорт 1006.6 1003.5
09 15.06 В 5 20 км {дождь} н/о +18.2 +14.1 77 +18 +18 1007.2 1004.1
10 15.06 В 3 20 км н/о +18.4 +13.7 74 +19 +19 1006.8 1003.7
11 15.06 ЮВ 3 20 км слаб. дождь н/о +18.7 +12.0 65 +20 +20 1006.4 1003.3
12 15.06 Ю 4 20 км слаб. дождь н/о +18.3 +12.5 69 +19 +19 1006.1 1003.0 +26.8 0.0
13 15.06 В 2 20 км слаб. дождь н/о +18.1 +11.9 67 +19 +19 1005.5 1002.4
14 15.06 В 2 14 км слаб. дождь н/о +16.8 +13.5 81 +17 +17 1005.2 1002.1
15 15.06 В 5 8000 м слаб. дождь н/о +15.0 +14.1 94 +14 +14 1004.3 1001.2
16 15.06 В 3 20 км в посл. час дождь н/о +15.1 +14.5 96 +14 +14 1003.5 1000.4
17 15.06 С 2 19 км в посл. час дождь н/о +15.3 +14.5 95 +15 +15 1002.2 999.1
18 15.06 СВ 2 20 км слаб. дождь н/о +15.3 +13.9 91 +15 +15 1001.3 998.2 2
19 15.06 В 1 9000 м слаб. дождь н/о +14.4 +13.9 97 +15 +15 1000.5 997.4
20 15.06 СВ 2 4400 м дождь н/о +14.1 +14.1 100 +14 +14 999.8 996.7
21 15.06 В 3 8000 м слаб. дождь н/о +13.8 +13.8 100 +13 +13 998.2 995.1

 

Местоположение метеостанции Отару (Япония): широта 43.18 долгота 141.01 высота над уровнем моря 26 м.

В архиве по умолчанию представлена погода в Отару за последнюю неделю. Архивные данные за месяц целиком и за предыдущие месяцы, начиная с января 2011 года, Вы можете получить, выбрав интересующий диапазон дат из раскрывающегося списка и нажав кнопку "Ввод!".


*Определитесь, кто Вы:
робот инопланетянин человек

Внимание! Время в таблицах - всемирное. Для получения местного времени необходимо прибавить поправку, которая равна 9 ч.

Смотрите также архив погоды в соседних городах и на ближайших метеорологических станциях:

Погода в Саппоро (Япония) (29 км)
Погода в Куттяне (Япония) (38 км)
Погода в Ивамидзаве (Япония) (63 км)
Погода в Томакомае (Япония) (76 км)
Погода в Суццу (Япония) (78 км)
Погода в Муроране (Япония) (96 км)
Погода в Румои (Япония) (99 км)
Погода в Асахикаве (Япония) (127 км)
Погода в Хаборо (Япония) (143 км)
Погода в Хакодате (Япония) (153 км)

Пояснения к столбцам:

Ветер - указаны скорость ветра в м/с - средняя за 10 мин, порывы в срок и между сроками (в фигурных скобках) и направление, откуда дует ветер: С - северный, СВ - северо-восточный, В - восточный, ЮВ - юго-восточный, Ю - южный, ЮЗ - юго-западный, З - западный, СЗ - северо-западный.
Видимость - горизонтальная дальность видимости в метрах или километрах. При видимости от 1 до 10 км при отсутствии осадков обычно наблюдается дымка, при ухудшении видимости до 1 км и менее - туман. В сухую погоду видимость может ухудшаться дымом, пылью или мглою.
Явления - указаны атмосферные явления, наблюдавшиеся в срок или в последний час перед сроком; фигурными скобками обозначены явления, наблюдавшиеся между сроками (за 1-3 часа до срока); квадратными скобками обозначены град или гололедные отложения с указанием их диаметра в мм.
Облачность - указаны через наклонную черту общая и нижняя облачность в баллах и высота нижней границы облаков в метрах; квадратными скобками обозначены формы облаков: Ci - перистые, Cs - перисто-слоистые, Cc - перисто-кучевые, Ac - высококучевые, As - высокослоистые, Sc - слоисто-кучевые, Ns - слоисто-дождевые, Cu - кучевые, Cb - кучево-дождевые. Подробнее классификацию облаков см. в Атласе облаков (PDF).
T - Температура воздуха - температура, измеренная на высоте 2 м над землей.
Td - Температура точки росы - температура, при понижении до которой содержащийся в воздухе водяной пар достигнет насыщения.
f - Относительная влажность воздуха - влажноcть воздуха, измеренная на высоте 2 м над землей.
Te - Эффективная температура - температура, которую ощущает одетый по сезону человек в тени. Характеристика душности погоды. При расчете учитывается влияние влажности воздуха и скорости ветра на теплоощущения человека.
Tes - Эффективная температура на солнце - температура, которую ощущает человек, с поправкой на солнечный нагрев. Характеристика знойности погоды. Зависит от высоты солнца над горизонтом, облачности и скорости ветра. Ночью, в пасмурную погоду, а также при ветре 12 м/с и более поправка равна нулю.
P - Атмосферное давление - приведенное к уровню моря атмосферное давление.
Po - Атмосферное давление - измеренное на уровне метеостанции атмосферное давление.
Tmin - Минимальная температура - минимум температуры воздуха на высоте 2 м над землей.
Tmax - Максимальная температура - максимум температуры воздуха на высоте 2 м над землей.
R - Количество осадков - Количество выпавших осадков за период времени, мм. При наведении курсора мыши на число - период времени, за который выпало указанное количество осадков.
R24 - Количество осадков - Количество выпавших осадков за 24 часа, мм.
S - Снежный покров - Высота снежного покрова, см. При наведении курсора мыши на число - состояние снежного покрова и степень покрытия местности в баллах.